Weather in Samburg

Russia / Yamalo-Nenets Autonomous Okrug     67°00′12″N   78°13′25″E
temp.,
°C
wind,
m/s
gust,
m/s
humid.,
%
clouds,
%
prec.,
mm/h
press.,
hPa
HPBL,
m
9 december, thu
thu923:00−7w112192100 1.8 1005868
02:00−5wnw8148985 0.3 1006957
05:00−9wnw816835 0.3 1007486
08:00−11wnw7149097 0.0 1010393
11:00−13nw71393100 0.0 1012405
14:00−18nw489832 0.0 1015116
17:00−22nw48995 0.0 1018100
20:00−25nw47995 0.0 102164
10 december, fri
fri1023:00−28n34995 0.0 102436
02:00−31w3210050 0.0 102616
05:00−32wsw0010059 0.0 10279
08:00−31sse2210064 0.0 10289
11:00−30se3310045 0.0 102728
14:00−26se479759 0.0 102681
17:00−23ese61292100 0.0 1024195
20:00−20ese71489100 0.0 1021307
11 december, sat
sat1123:00−19ese91797100 0.9 1018373
02:00−18ese91796100 1.6 1015425
05:00−18e91596100 2.8 1014425
08:00−20e81397100 0.8 1014365
11:00−20ene71297100 1.3 1014373
14:00−20ene61197100 0.4 1016389
17:00−20ne61196100 0.7 1018373
20:00−22nne5109679 0.1 1019241
12 december, sun
sun1223:00−25nne499321 0.1 1021124
02:00−29nne478947 0.0 102275
05:00−29n3589100 0.0 102370
08:00−28n2489100 0.0 102347
11:00−30nnw2293100 0.0 102422
14:00−33nw2299100 0.0 102417
17:00−30nnw229890 0.0 102535
20:00−32nnw229910 0.0 102515
13 december, mon
mon1323:00−35nnw32995 0.0 102621
02:00−36n32985 0.0 102720
05:00−36n33975 0.0 102821
08:00−36n22975 0.0 102913
11:00−37nnw22975 0.0 103011
14:00−37n22975 0.0 10309
17:00−38wnw01975 0.0 10319
20:00−38s22975 0.0 10309